Location: Williamtown
(32.8167°S, 151.8500°E)
Time: 01:14:49
(UTC+00:00)

Daily predictions for brighter satellites

Satellite Brightness Start Highest point End
(mag) Time Altitude Azimuth Time Altitude Azimuth Time Altitude Azimuth
Cosmos 1821 Rocket 4.4 07:10:20 10° NNW 07:16:23 70° W 07:22:35 10° S
STARLINK-1281 3.9 07:14:41 10° NW 07:18:50 70° SW 07:23:02 10° SE
NOSS 2-3 (D) 4.3 07:12:48 10° SSW 07:19:11 58° SE 07:24:04 10° NE
STARLINK-1246 3.8 07:17:07 10° SW 07:21:19 79° NW 07:25:29 10° NE
COSMO-SKYMED 1 2.8 07:17:26 10° N 07:21:47 82° WNW 07:26:12 10° SSW
ADEOS Rocket 3.7 07:15:17 10° NNE 07:22:34 87° WNW 07:30:26 10° SSW
STARLINK-1310 4.1 07:19:42 10° NW 07:23:50 62° SW 07:28:01 10° SE
MOS 1-B 4.4 07:19:10 10° SSE 07:25:04 81° ENE 07:30:51 10° N
Cosmos 2228 Rocket 3.3 07:21:13 10° S 07:25:43 54° E 07:30:05 10° NNE
STARLINK-1224 4.0 07:22:06 10° SW 07:26:18 71° NW 07:30:26 10° NE
Cosmos 1515 Rocket 3.9 07:22:43 10° S 07:27:11 74° W 07:31:37 10° N
USA 229 DEB 4.1 07:20:48 10° SW 07:27:28 69° WNW 07:33:50 10° NNE
USA 229 4.0 07:20:54 10° SW 07:27:35 69° WNW 07:33:57 10° NNE
STARLINK-1319 4.2 07:24:41 10° WNW 07:28:47 55° SW 07:32:56 10° SE
Cosmos 2237 Rocket 3.4 07:25:08 10° NNE 07:29:22 22° E 07:33:37 10° SE
STARLINK-1225 4.2 07:27:07 10° SW 07:31:16 62° NW 07:35:22 10° NNE
ALOS 4.1 07:27:14 10° S 07:31:26 32° WSW 07:35:35 10° NW
STARLINK-71 4.4 07:27:52 10° NNW 07:31:33 34° NE 07:35:08 11° ESE
STARLINK-61 3.6 07:28:04 10° NW 07:32:01 79° SW 07:35:59 10° SE
CZ-4B R/B 3.4 07:27:54 10° SSE 07:33:17 55° E 07:38:42 10° N
STARLINK-57 4.4 07:29:44 10° NNW 07:33:20 33° NE 07:36:43 11° ESE
STARLINK-1277 4.4 07:29:44 10° WNW 07:33:47 49° SW 07:37:54 10° SSE
ATLAS 5 CENTAUR R/B 3.7 07:28:49 10° NNE 07:34:40 27° ENE 07:40:18 10° SE
NOAA 6 4.0 07:29:31 10° SSE 07:34:43 76° ENE 07:39:50 10° N
STARLINK-49 4.5 07:31:19 10° NNW 07:34:53 32° NE 07:38:08 12° ESE
Cosmos 1346 Rocket 2.8 07:31:48 10° N 07:35:44 88° E 07:39:44 10° S
STARLINK-1230 4.5 07:32:07 10° SW 07:36:14 55° NW 07:40:17 10° NNE
Cosmos 1934 Rocket 4.2 07:30:01 10° N 07:36:19 83° W 07:42:45 10° S
STARLINK-27 4.4 07:32:55 10° NNW 07:36:31 34° NE 07:39:43 12° ESE
NOSS 3-1 (C) 4.4 07:31:01 10° SW 07:36:38 47° WNW 07:41:39 10° N
NOSS 3-1 (A) 3.3 07:32:04 10° SSW 07:38:04 84° WNW 07:43:20 10° NNE
STARLINK-74 4.3 07:34:31 10° NNW 07:38:09 35° NE 07:41:17 13° ESE
STARLINK-39 4.3 07:36:08 10° NNW 07:39:48 36° NE 07:42:53 14° ESE
STARLINK-31 4.2 07:37:44 10° NNW 07:41:26 38° NE 07:44:29 14° ESE
Cosmos 1605 Rocket 4.0 07:35:17 10° N 07:41:29 68° E 07:47:40 10° SSE
Radarsat Rocket 4.5 07:34:06 10° SSE 07:41:41 61° ENE 07:48:16 10° N
Okean O Rocket 1.6 07:37:28 10° SSE 07:41:55 67° ENE 07:46:19 10° N
Cosmos 2333 Rocket 2.4 07:36:12 10° NNW 07:41:58 80° WSW 07:47:48 10° SSE
STARLINK-69 4.0 07:39:28 10° NNW 07:43:15 45° NE 07:46:21 15° ESE
STARLINK-21 4.1 07:41:00 10° NNW 07:44:45 42° NE 07:47:43 15° ESE
Milstar 3 4.4 07:36:43 10° W 07:45:53 72° N 08:04:10 10° E
STARLINK-1012 4.4 07:42:22 10° NNW 07:46:09 35° NE 07:48:59 16° ESE
STARLINK-45 3.8 07:42:43 10° NNW 07:46:34 50° NE 07:49:34 16° ESE
H-2A R/B 2.7 07:43:40 10° SSE 07:47:34 80° E 07:51:27 10° N
STARLINK-70 3.8 07:44:18 10° NNW 07:48:09 50° NE 07:51:03 17° ESE
STARLINK-76 3.9 07:44:32 10° NNW 07:48:14 46° NE 07:50:58 17° ESE
Iridium 96 3.4 07:47:33 10° S 07:49:28 61° W 07:51:22 10° N
NOSS 2-3 (C) 4.4 07:43:49 10° SSW 07:50:02 73° WNW 07:54:51 10° NNE
USA 116 4.2 07:46:39 10° N 07:51:03 85° WNW 07:56:05 10° SSW
STARLINK-23 3.8 07:47:29 10° NNW 07:51:20 51° NE 07:54:03 18° ESE
Cosmos 1680 Rocket 3.5 07:46:47 10° NNW 07:52:05 81° ENE 07:57:24 10° SSE
STARLINK-32 3.7 07:49:06 10° NNW 07:52:59 53° NE 07:55:39 19° ESE
Cosmos 923 Rocket 4.3 07:48:26 10° NNW 07:53:45 72° WSW 07:59:10 10° SSE
STARLINK-40 3.7 07:50:44 10° NNW 07:54:37 55° NE 07:57:14 20° ESE
STARLINK-1026 4.1 07:52:05 10° NNW 07:56:03 44° NE 07:58:31 21° ESE
STARLINK-44 3.6 07:52:21 10° NNW 07:56:15 58° NE 07:58:48 20° ESE
STARLINK-37 3.5 07:54:06 10° NW 07:58:02 67° NE 08:00:36 21° SE
Cosmos 2278 Rocket 3.4 07:54:50 10° SSE 07:58:57 20° ESE 08:00:17 19° ESE
STARLINK-36 3.6 07:55:37 10° NNW 07:59:32 63° NE 08:01:58 22° SE
Longmarch 3A Rocket 4.4 07:32:27 10° WNW 07:59:50 46° N 08:04:20 14° ENE
STARLINK-68 3.4 07:56:32 10° NW 08:00:25 72° NE 08:02:52 22° SE
ERBS 4.5 07:57:38 10° WSW 08:00:37 29° WNW 08:03:33 10° N
STARLINK-1013 3.9 07:56:59 10° NNW 08:01:01 50° NE 08:03:19 23° ESE
Sich 1 3.0 07:56:47 10° N 08:01:08 88° W 08:05:35 10° S
Cosmos 1862 3.8 07:58:00 10° NNW 08:01:58 65° W 08:06:00 10° S
Helios 1A Rocket 3.2 07:58:37 11° SSE 08:02:25 43° E 08:06:17 10° N
STARLINK-24 3.5 07:58:48 10° NW 08:02:50 77° NE 08:05:19 22° SE
STARLINK-63 3.5 07:58:59 10° NW 08:02:56 74° NE 08:05:19 23° SE
STARLINK-35 3.5 08:00:31 10° NW 08:04:28 72° NE 08:06:44 24° SE
STARLINK-51 3.4 08:01:15 10° NW 08:05:08 73° NE 08:07:18 25° SE
STARLINK-1009 3.8 08:01:54 10° NNW 08:05:58 56° NE 08:08:06 26° ESE
STARLINK-30 3.4 08:03:48 10° NW 08:07:46 78° NE 08:09:55 26° SE
Cosmos 1844 Rocket 3.2 08:02:57 10° SSW 08:08:35 62° WNW 08:14:09 10° N
STARLINK-72 3.4 08:05:28 10° NW 08:09:26 82° NE 08:11:31 27° SE
STARLINK-1015 3.7 08:06:49 10° NNW 08:10:56 64° NE 08:12:53 29° ESE
STARLINK-59 3.5 08:08:50 10° NW 08:12:49 87° SW 08:14:50 28° SE
STARLINK-1010 3.6 08:09:02 10° NW 08:13:17 75° NE 08:15:22 29° SE
STARLINK-56 3.4 08:10:23 10° NW 08:14:22 88° SW 08:16:15 30° SE
SL-4 R/B 3.5 08:12:40 10° SSW 08:15:05 20° SSE 08:15:05 20° SSE
Cosmos 2100 Rocket 4.2 08:09:41 10° NNE 08:15:37 48° E 08:21:34 10° SSE
STARLINK-1016 3.6 08:11:45 10° NW 08:15:53 72° NE 08:17:40 33° SE
STARLINK-73 3.5 08:12:01 10° NW 08:15:59 85° SW 08:17:49 31° SE
STARLINK-38 3.4 08:12:39 10° NW 08:16:33 83° SW 08:18:17 32° SE
STARLINK-50 3.5 08:12:30 10° NW 08:16:33 84° SW 08:18:27 31° SE
NOAA 12 4.0 08:11:31 10° SSE 08:16:50 69° ENE 08:22:03 10° N
OE (NEXTSAT) 4.2 08:13:59 10° SW 08:17:33 84° SE 08:18:57 34° ENE
STARLINK-65 3.5 08:15:19 10° NW 08:19:18 79° SW 08:21:00 33° SE
Cosmos 1666 Rocket 3.6 08:15:33 10° N 08:19:56 81° W 08:24:23 10° S
Okean-O 3.5 08:20:27 29° ENE 08:20:27 29° ENE 08:24:02 10° NNE
STARLINK-1008 3.5 08:16:44 10° NW 08:20:53 81° NE 08:22:28 37° SE
Envisat 3.0 08:15:51 10° S 08:21:01 85° WSW 08:26:07 10° NNW
STARLINK-53 3.6 08:17:05 10° NW 08:21:02 71° SW 08:22:43 33° SSE
Feng Yun 1-1 Rocket 4.1 08:19:12 10° SSE 08:24:36 65° ENE 08:30:01 10° N
Cosmos 1153 Rocket 4.5 08:18:29 10° N 08:24:39 84° W 08:30:52 10° S
Cosmos 1633 Rocket 3.0 08:20:19 10° N 08:24:44 88° W 08:29:15 10° S
STARLINK-1014 3.6 08:21:38 10° NW 08:25:50 90° SW 08:27:16 41° SE
Lacrosse 5 rocket 2.4 08:27:03 10° N 08:30:21 30° NE 08:30:21 30° NE
STARLINK-1025 3.6 08:26:37 10° NW 08:30:47 81° SW 08:32:00 45° SE
IRS-1C Rocket 4.0 08:26:53 12° SSE 08:31:55 73° ENE 08:37:10 10° N
Cosmos 2219 Rocket 4.0 08:29:38 10° WNW 08:34:31 29° WSW 08:39:28 10° S
Cosmos 1624 Rocket 4.2 08:30:34 10° S 08:35:35 43° ESE 08:35:39 43° ESE
STARLINK-1017 3.7 08:31:38 10° NW 08:35:47 72° SW 08:36:48 49° SSE
Meteor 1-20 Rocket 4.3 08:34:10 10° N 08:39:39 54° E 08:41:44 36° SE
STARLINK-1023 3.9 08:35:53 10° NW 08:40:03 66° SW 08:40:55 50° SSE
Meteor 1-27 Rocket 3.8 08:34:46 10° S 08:40:44 89° WNW 08:46:40 10° N
STARLINK-25 4.2 08:38:53 10° WNW 08:42:37 46° SW 08:43:13 42° SSW
SMAP 4.4 08:39:33 10° S 08:43:56 40° WSW 08:48:17 10° NW
Cosmos 1980 3.9 08:38:30 10° NNW 08:44:09 69° WSW 08:48:13 20° SSE
STARLINK-1007 4.0 08:41:38 10° WNW 08:45:45 57° SW 08:46:22 51° S
Cosmos 2016 Rocket 4.0 08:40:54 10° NNE 08:46:55 54° E 08:48:55 39° SE
Cosmos 1812 4.1 08:45:43 10° SSW 08:49:23 39° W 08:52:59 10° NNW
Cosmos 2173 Rocket 3.9 08:43:12 10° N 08:49:32 88° E 08:55:51 10° S
Cosmos 1371 Rocket 3.9 08:44:17 10° SSW 08:49:42 71° ESE 08:53:11 22° NNE
STARLINK-1048 4.2 08:46:40 10° WNW 08:50:44 51° SW 08:51:09 49° SSW
YAOGAN 6 4.5 08:50:37 12° SSW 08:53:33 30° WSW 08:56:49 10° NW
STARLINK-1049 4.4 08:51:43 10° WNW 08:55:44 46° SW 08:55:57 46° SSW
SL-4 R/B 3.9 08:57:32 10° WNW 08:59:57 18° WSW 08:59:59 18° WSW
Cosmos 1459 Rocket 4.1 08:54:13 10° N 09:00:21 76° W 09:06:41 10° S
BREEZE-M DEB (TANK) 3.5 08:59:16 10° NW 09:05:47 45° N 09:05:47 45° N
Cosmos 1470 Rocket 4.4 09:04:30 10° NNW 09:08:53 50° W 09:10:01 40° SW
Cosmos 2237 Rocket 3.3 09:07:45 10° NW 09:13:04 41° WSW 09:16:10 23° S
Cosmos 1802 Rocket 4.2 09:08:14 10° NNW 09:14:38 73° W 09:20:03 16° S
Cosmos 2056 Rocket 3.9 09:13:07 10° SSW 09:17:37 60° SW 09:17:37 60° SW
ATLAS 5 CENTAUR R/B 3.2 09:12:07 10° NW 09:19:11 55° WSW 09:21:53 36° S
ARGOS Delta rocket 4.3 09:21:13 68° WNW 09:21:13 68° WNW 09:26:02 10° NNW
Cosmos 1725 Rocket 4.0 09:16:45 10° N 09:22:14 71° N 09:22:14 71° N
BREEZE-M DEB (TANK) 4.3 09:20:33 10° WNW 09:24:48 59° SSW 09:28:37 39° SE
SL-16 R/B 2.9 09:20:41 10° NNW 09:24:31 45° NNW 09:24:31 45° NNW
Cosmos 2278 Rocket 3.2 09:37:48 10° SSW 09:42:17 43° WSW 09:42:17 43° WSW
H-2A R/B 4.5 09:53:49 10° W 10:23:45 53° NW 10:23:45 53° NW
